| time (UTC) | temp C | wind direction | speed KPH | gust KPH | rain 1hr cm | rain 24hr cm | rain mn cm | humidity % | barometer mb |
| 20260903150020 | 28 | 111 | 12.9 | 22.5 | 0.00 | 0.00 | 0.00 | 66 | 1019.0 |
| 20260903145035 | 29 | 98 | 11.3 | 27.4 | 0.00 | 0.00 | 0.00 | 65 | 1019.0 |
| 20260903144030 | 29 | 107 | 12.9 | 22.5 | 0.00 | 0.00 | 0.00 | 65 | 1019.2 |
| 20260903143025 | 29 | 106 | 9.7 | 17.7 | 0.00 | 0.00 | 0.00 | 64 | 1019.3 |
| 20260903142101 | 29 | 102 | 11.3 | 20.9 | 0.00 | 0.00 | 0.00 | 63 | 1019.3 |
| 20260903141016 | 30 | 122 | 12.9 | 22.5 | 0.00 | 0.00 | 0.00 | 59 | 1019.3 |
| 20260903140031 | 30 | 97 | 9.7 | 16.1 | 0.00 | 0.00 | 0.00 | 59 | 1019.4 |
| 20260903135026 | 30 | 117 | 11.3 | 22.5 | 0.00 | 0.00 | 0.00 | 60 | 1019.5 |
| 20260903134021 | 30 | 120 | 11.3 | 22.5 | 0.00 | 0.00 | 0.00 | 61 | 1019.6 |
| 20260903133017 | 30 | 104 | 9.7 | 22.5 | 0.00 | 0.00 | 0.00 | 61 | 1019.7 |
| 20260903132032 | 30 | 104 | 11.3 | 20.9 | 0.00 | 0.00 | 0.00 | 58 | 1019.7 |
| 20260903131027 | 30 | 133 | 9.7 | 16.1 | 0.00 | 0.00 | 0.00 | 57 | 1019.9 |
| 20260903130022 | 30 | 105 | 9.7 | 20.9 | 0.00 | 0.00 | 0.00 | 58 | 1019.8 |
| 20260903125018 | 30 | 115 | 9.7 | 20.9 | 0.00 | 0.00 | 0.00 | 58 | 1019.9 |
| 20260903124033 | 30 | 122 | 11.3 | 25.7 | 0.00 | 0.00 | 0.00 | 61 | 1019.9 |
| 20260903123028 | 30 | 103 | 8.0 | 16.1 | 0.00 | 0.00 | 0.00 | 61 | 1020.0 |
| 20260903122023 | 30 | 128 | 8.0 | 16.1 | 0.00 | 0.00 | 0.00 | 64 | 1020.0 |
| 20260903121019 | 30 | 103 | 9.7 | 22.5 | 0.00 | 0.00 | 0.00 | 66 | 1020.1 |
| 20260903120034 | 30 | 116 | 9.7 | 22.5 | 0.00 | 0.00 | 0.00 | 67 | 1020.2 |
| 20260903115029 | 30 | 120 | 8.0 | 20.9 | 0.00 | 0.00 | 0.00 | 68 | 1020.2 |
| 20260903114025 | 29 | 127 | 9.7 | 16.1 | 0.00 | 0.00 | 0.00 | 69 | 1020.4 |
| 20260903113020 | 30 | 103 | 9.7 | 16.1 | 0.00 | 0.00 | 0.00 | 68 | 1020.4 |
| 20260903112115 | 30 | 128 | 8.0 | 16.1 | 0.00 | 0.00 | 0.00 | 68 | 1020.5 |
| 20260903111030 | 29 | 150 | 6.4 | 16.1 | 0.00 | 0.00 | 0.00 | 69 | 1020.6 |
| 20260903110025 | 29 | 156 | 8.0 | 12.9 | 0.00 | 0.00 | 0.00 | 70 | 1020.7 |
| 20260903105021 | 28 | 111 | 8.0 | 14.5 | 0.00 | 0.00 | 0.00 | 72 | 1020.8 |
| 20260903104016 | 28 | 111 | 9.7 | 22.5 | 0.00 | 0.00 | 0.00 | 74 | 1020.9 |
| 20260903103031 | 28 | 137 | 9.7 | 22.5 | 0.00 | 0.00 | 0.00 | 73 | 1021.0 |
| 20260903102027 | 28 | 122 | 9.7 | 20.9 | 0.00 | 0.00 | 0.00 | 73 | 1021.0 |
| 20260903101042 | 28 | 147 | 4.8 | 12.9 | 0.00 | 0.00 | 0.00 | 71 | 1021.0 |
| 20260903100017 | 28 | 78 | 3.2 | 11.3 | 0.00 | 0.00 | 0.00 | 73 | 1020.9 |
| 20260903095033 | 28 | 103 | 6.4 | 14.5 | 0.00 | 0.00 | 0.00 | 70 | 1020.8 |
| 20260903094028 | 28 | 128 | 1.6 | 6.4 | 0.00 | 0.00 | 0.00 | 70 | 1020.9 |
| 20260903093024 | 28 | 148 | 3.2 | 11.3 | 0.00 | 0.00 | 0.00 | 70 | 1020.9 |
| 20260903092039 | 28 | 149 | 3.2 | 11.3 | 0.00 | 0.00 | 0.00 | 72 | 1021.0 |
| 20260903091034 | 28 | 71 | 1.6 | 3.2 | 0.00 | 0.00 | 0.00 | 72 | 1021.1 |
| 20260903090030 | 28 | 106 | 1.6 | 6.4 | 0.00 | 0.00 | 0.00 | 71 | 1021.0 |
| 20260903085025 | 28 | 95 | 0.0 | 1.6 | 0.00 | 0.00 | 0.00 | 72 | 1021.0 |
| 20260903084020 | 27 | 127 | 1.6 | 3.2 | 0.00 | 0.00 | 0.00 | 74 | 1020.8 |
| 20260903083035 | 27 | 113 | 3.2 | 4.8 | 0.00 | 0.00 | 0.00 | 77 | 1020.8 |
| 20260903082030 | 27 | 55 | 0.0 | 3.2 | 0.00 | 0.00 | 0.00 | 78 | 1020.7 |
| 20260903081026 | 27 | 88 | 0.0 | 1.6 | 0.00 | 0.00 | 0.00 | 77 | 1020.8 |
| 20260903080022 | 27 | 106 | 1.6 | 3.2 | 0.00 | 0.00 | 0.00 | 77 | 1020.9 |
| 20260903075057 | 27 | 101 | 0.0 | 1.6 | 0.00 | 0.00 | 0.00 | 78 | 1020.7 |
| 20260903074032 | 26 | 123 | 0.0 | 3.2 | 0.00 | 0.00 | 0.00 | 79 | 1020.8 |
| 20260903073027 | 26 | 95 | 0.0 | 3.2 | 0.00 | 0.00 | 0.00 | 79 | 1020.8 |
| 20260903072023 | 26 | 58 | 0.0 | 1.6 | 0.00 | 0.00 | 0.00 | 79 | 1020.7 |
| 20260903071019 | 26 | 53 | 0.0 | 1.6 | 0.00 | 0.00 | 0.00 | 81 | 1020.8 |
| 20260903070034 | 25 | 0.0 | 0.0 | 0.00 | 0.00 | 0.00 | 85 | 1020.7 | |
| 20260903065029 | 25 | 0.0 | 0.0 | 0.00 | 0.00 | 0.00 | 87 | 1020.6 | |
| 20260903064024 | 24 | 0.0 | 0.0 | 0.00 | 0.00 | 0.00 | 89 | 1020.5 | |
| 20260903063020 | 24 | 0.0 | 0.0 | 0.00 | 0.00 | 0.00 | 90 | 1020.4 | |
| 20260903062115 | 23 | 0.0 | 0.0 | 0.00 | 0.00 | 0.00 | 90 | 1020.2 | |
| 20260903061030 | 23 | 0.0 | 0.0 | 0.00 | 0.00 | 0.00 | 91 | 1020.3 | |
| 20260903060025 | 23 | 0.0 | 0.0 | 0.00 | 0.00 | 0.00 | 91 | 1020.0 | |
| 20260903055020 | 23 | 358 | 0.0 | 1.6 | 0.00 | 0.00 | 0.00 | 91 | 1019.8 |
| 20260903054016 | 23 | 4 | 0.0 | 1.6 | 0.00 | 0.00 | 0.00 | 91 | 1019.8 |
| 20260903053031 | 23 | 352 | 0.0 | 3.2 | 0.00 | 0.00 | 0.00 | 92 | 1019.7 |
| 20260903052027 | 23 | 351 | 0.0 | 1.6 | 0.00 | 0.00 | 0.00 | 92 | 1019.7 |
| 20260903051042 | 23 | 351 | 0.0 | 1.6 | 0.00 | 0.00 | 0.00 | 92 | 1019.7 |
| 20260903050017 | 23 | 0.0 | 0.0 | 0.00 | 0.00 | 0.00 | 91 | 1019.7 | |
| 20260903045033 | 23 | 0.0 | 0.0 | 0.00 | 0.00 | 0.00 | 91 | 1019.6 | |
| 20260903044028 | 23 | 0.0 | 0.0 | 0.00 | 0.00 | 0.00 | 91 | 1019.5 | |
| 20260903043023 | 23 | 0.0 | 0.0 | 0.00 | 0.00 | 0.00 | 91 | 1019.3 | |
| 20260903042018 | 23 | 0.0 | 0.0 | 0.00 | 0.00 | 0.00 | 91 | 1019.3 | |
| 20260903041034 | 23 | 0.0 | 0.0 | 0.00 | 0.00 | 0.00 | 91 | 1019.2 | |
| 20260903040050 | 23 | 0.0 | 0.0 | 0.00 | 0.00 | 0.00 | 91 | 1019.3 | |
| 20260903035024 | 23 | 0.0 | 0.0 | 0.00 | 0.00 | 0.00 | 90 | 1019.2 | |
| 20260903034020 | 24 | 0.0 | 0.0 | 0.00 | 0.00 | 0.00 | 90 | 1019.3 | |
| 20260903033015 | 24 | 0.0 | 0.0 | 0.00 | 0.00 | 0.00 | 90 | 1019.3 | |
| 20260903032050 | 24 | 0.0 | 0.0 | 0.00 | 0.00 | 0.00 | 89 | 1019.3 | |
| 20260903031026 | 24 | 0.0 | 0.0 | 0.00 | 0.00 | 0.00 | 89 | 1019.3 | |
| 20260903030021 | 24 | 348 | 0.0 | 1.6 | 0.00 | 0.00 | 0.00 | 89 | 1019.3 |
| 20260903025056 | 24 | 0.0 | 0.0 | 0.00 | 0.00 | 0.00 | 89 | 1019.4 | |
| 20260903024051 | 24 | 0.0 | 0.0 | 0.00 | 0.00 | 0.00 | 89 | 1019.3 | |
| 20260903023026 | 24 | 0.0 | 0.0 | 0.00 | 0.00 | 0.00 | 88 | 1019.4 | |
| 20260903022022 | 25 | 0.0 | 0.0 | 0.00 | 0.00 | 0.00 | 88 | 1019.4 | |
| 20260903021017 | 25 | 0.0 | 0.0 | 0.00 | 0.00 | 0.00 | 88 | 1019.5 | |
| 20260903020033 | 25 | 282 | 0.0 | 3.2 | 0.00 | 0.00 | 0.00 | 88 | 1019.4 |
| 20260903015028 | 25 | 320 | 0.0 | 1.6 | 0.00 | 0.00 | 0.00 | 88 | 1019.3 |
| 20260903014024 | 25 | 0.0 | 0.0 | 0.00 | 0.00 | 0.00 | 88 | 1019.4 | |
| 20260903013018 | 25 | 311 | 0.0 | 1.6 | 0.00 | 0.00 | 0.00 | 88 | 1019.4 |
| 20260903012033 | 25 | 288 | 0.0 | 3.2 | 0.00 | 0.00 | 0.00 | 88 | 1019.4 |
| 20260903011109 | 25 | 290 | 0.0 | 1.6 | 0.00 | 0.00 | 0.00 | 88 | 1019.4 |
| 20260903010025 | 25 | 290 | 0.0 | 1.6 | 0.00 | 0.00 | 0.00 | 88 | 1019.4 |
| 20260903005020 | 25 | 290 | 0.0 | 1.6 | 0.00 | 0.00 | 0.00 | 88 | 1019.5 |
| 20260903004015 | 25 | 290 | 0.0 | 1.6 | 0.00 | 0.00 | 0.00 | 88 | 1019.5 |
| 20260903003031 | 25 | 304 | 0.0 | 1.6 | 0.00 | 0.00 | 0.00 | 88 | 1019.6 |
| 20260903002026 | 25 | 296 | 0.0 | 1.6 | 0.00 | 0.00 | 0.00 | 88 | 1019.8 |
| 20260903001021 | 25 | 284 | 0.0 | 1.6 | 0.00 | 0.00 | 0.00 | 88 | 1019.9 |
| 20260903000017 | 25 | 308 | 0.0 | 1.6 | 0.00 | 0.00 | 0.00 | 88 | 1019.8 |
| 20260902235032 | 25 | 319 | 0.0 | 3.2 | 0.00 | 0.00 | 0.00 | 88 | 1019.8 |
| 20260902234028 | 25 | 266 | 1.6 | 3.2 | 0.00 | 0.00 | 0.00 | 88 | 1019.7 |
| 20260902233023 | 25 | 302 | 0.0 | 3.2 | 0.00 | 0.00 | 0.00 | 88 | 1019.7 |
| 20260902232039 | 25 | 44 | 0.0 | 1.6 | 0.00 | 0.00 | 0.00 | 88 | 1019.9 |
| 20260902231034 | 25 | 62 | 0.0 | 1.6 | 0.00 | 0.00 | 0.00 | 89 | 1019.8 |
| 20260902230029 | 25 | 0.0 | 0.0 | 0.00 | 0.00 | 0.00 | 89 | 1019.8 | |
| 20260902225024 | 25 | 0.0 | 0.0 | 0.00 | 0.00 | 0.00 | 89 | 1019.9 | |
| 20260902224019 | 25 | 0.0 | 0.0 | 0.00 | 0.00 | 0.00 | 89 | 1019.8 | |
| 20260902223035 | 25 | 0.0 | 0.0 | 0.00 | 0.00 | 0.00 | 89 | 1019.8 | |
| 20260902222030 | 25 | 0.0 | 0.0 | 0.00 | 0.00 | 0.00 | 88 | 1019.8 | |
| 20260902221026 | 25 | 0.0 | 0.0 | 0.00 | 0.00 | 0.00 | 88 | 1019.8 | |
| 20260902215016 | 26 | 0.0 | 0.0 | 0.00 | 0.00 | 0.00 | 88 | 1019.8 | |
| 20260902214032 | 26 | 87 | 0.0 | 1.6 | 0.00 | 0.00 | 0.00 | 88 | 1019.7 |
| 20260902213047 | 26 | 78 | 0.0 | 1.6 | 0.00 | 0.00 | 0.00 | 88 | 1019.7 |
| 20260902212022 | 26 | 109 | 0.0 | 3.2 | 0.00 | 0.00 | 0.00 | 88 | 1019.8 |
| 20260902211018 | 26 | 138 | 1.6 | 3.2 | 0.00 | 0.00 | 0.00 | 88 | 1019.8 |
| 20260902210033 | 26 | 93 | 0.0 | 1.6 | 0.00 | 0.00 | 0.00 | 87 | 1019.8 |
| 20260902205029 | 26 | 109 | 1.6 | 3.2 | 0.00 | 0.00 | 0.00 | 87 | 1019.6 |
| 20260902204024 | 25 | 104 | 0.0 | 3.2 | 0.00 | 0.00 | 0.00 | 88 | 1019.5 |
| 20260902203019 | 25 | 83 | 0.0 | 1.6 | 0.00 | 0.00 | 0.00 | 88 | 1019.5 |
| 20260902202035 | 25 | 0.0 | 0.0 | 0.00 | 0.00 | 0.00 | 88 | 1019.4 | |
| 20260902201030 | 25 | 84 | 1.6 | 3.2 | 0.00 | 0.00 | 0.00 | 88 | 1019.3 |
| 20260902200045 | 25 | 85 | 3.2 | 4.8 | 0.00 | 0.00 | 0.00 | 88 | 1019.1 |
| 20260902195021 | 25 | 86 | 3.2 | 4.8 | 0.00 | 0.00 | 0.00 | 87 | 1018.9 |
| 20260902194016 | 26 | 92 | 3.2 | 4.8 | 0.00 | 0.00 | 0.00 | 87 | 1018.7 |
| 20260902193031 | 26 | 92 | 3.2 | 6.4 | 0.00 | 0.00 | 0.00 | 86 | 1018.6 |
| 20260902192026 | 26 | 89 | 1.6 | 4.8 | 0.00 | 0.00 | 0.00 | 86 | 1018.4 |
| 20260902191022 | 26 | 56 | 1.6 | 4.8 | 0.00 | 0.00 | 0.00 | 85 | 1018.3 |
| 20260902190017 | 26 | 68 | 1.6 | 6.4 | 0.00 | 0.00 | 0.00 | 85 | 1017.9 |
| 20260902185033 | 26 | 81 | 3.2 | 9.7 | 0.00 | 0.00 | 0.00 | 85 | 1018.1 |
| 20260902184028 | 26 | 85 | 4.8 | 9.7 | 0.00 | 0.00 | 0.00 | 85 | 1018.0 |
| 20260902183023 | 26 | 94 | 6.4 | 11.3 | 0.00 | 0.00 | 0.00 | 85 | 1017.9 |
| 20260902182018 | 26 | 82 | 3.2 | 11.3 | 0.00 | 0.00 | 0.00 | 84 | 1018.0 |
| 20260902181033 | 26 | 88 | 4.8 | 11.3 | 0.00 | 0.00 | 0.00 | 83 | 1018.1 |
| 20260902180029 | 26 | 97 | 6.4 | 14.5 | 0.00 | 0.00 | 0.00 | 82 | 1018.0 |
| 20260902175044 | 26 | 89 | 6.4 | 16.1 | 0.00 | 0.00 | 0.00 | 80 | 1018.0 |
| 20260902174019 | 27 | 94 | 6.4 | 16.1 | 0.00 | 0.00 | 0.00 | 78 | 1018.1 |
| 20260902173054 | 27 | 116 | 6.4 | 14.5 | 0.00 | 0.00 | 0.00 | 78 | 1017.8 |
| 20260902172029 | 27 | 99 | 6.4 | 16.1 | 0.00 | 0.00 | 0.00 | 78 | 1018.0 |
| 20260902171024 | 27 | 108 | 8.0 | 16.1 | 0.00 | 0.00 | 0.00 | 77 | 1017.8 |
| 20260902170040 | 27 | 118 | 8.0 | 16.1 | 0.00 | 0.00 | 0.00 | 77 | 1017.9 |
| 20260902165035 | 27 | 113 | 8.0 | 16.1 | 0.00 | 0.00 | 0.00 | 76 | 1017.8 |
| 20260902164030 | 27 | 103 | 9.7 | 16.1 | 0.00 | 0.00 | 0.00 | 76 | 1017.9 |
| 20260902163026 | 27 | 91 | 6.4 | 16.1 | 0.00 | 0.00 | 0.00 | 76 | 1017.8 |
| 20260902162021 | 28 | 92 | 9.7 | 16.1 | 0.00 | 0.00 | 0.00 | 74 | 1017.8 |
| 20260902161018 | 27 | 109 | 9.7 | 16.1 | 0.00 | 0.00 | 0.00 | 76 | 1017.8 |
| 20260902160032 | 27 | 99 | 9.7 | 14.5 | 0.00 | 0.00 | 0.00 | 76 | 1017.8 |
| 20260902155027 | 27 | 100 | 8.0 | 17.7 | 0.00 | 0.00 | 0.00 | 76 | 1017.8 |
| 20260902154022 | 27 | 127 | 12.9 | 22.5 | 0.00 | 0.00 | 0.00 | 76 | 1017.9 |
| 20260902153018 | 27 | 118 | 9.7 | 20.9 | 0.00 | 0.00 | 0.00 | 76 | 1017.9 |
| 20260902152033 | 27 | 111 | 9.7 | 17.7 | 0.00 | 0.00 | 0.00 | 76 | 1018.0 |
| 20260902151028 | 27 | 99 | 11.3 | 20.9 | 0.00 | 0.00 | 0.00 | 76 | 1018.0 |